STARLINK-4718, 53773

Orbit data source: Space-Track

STARLINK-4718, 53773 is a payload satellite owned by SpaceX/Seattle (US) in LEO that was launched on Sun, 11 Sep 2022 UTC via an FALCON 9 launch vehicle from the Air Force Eastern Test Range (AFETR). Payload-class satellites include a variety of spacecraft equipped with specific instruments for various scientific and technological missions. These include communications satellites like Starlink; space stations such as the ISS; scientific satellites like the Hubble; Earth observation satellites from companies like Planet Labs, Umbra, and HawkEye 360; GPS; miniature CubeSats for education and research; and military/defense satellites.

Loading next visibility...
Identifier
53773, 2022-111A
Orbit
LEO
Country
Flag of USUS
Related business
Manufacturer
SpaceX/Seattle
Mission
Operational Commercial Communications
Bus & Motor
STARLINK, Unknown motor
Mass
305 kg wet, ~290 kg dry
Launch date (UTC)
2022-09-11 (3 years ago)
Launch vehicle
FALCON 9
Launch site
Air Force Eastern Test Range (AFETR)
Object type
Payload
Rocket body
Debris
Shape & HBR
Box + 1 Pan, 10.1 m
Radar Cross Section
13.562 m², Large (>1 m²)

Expand to show TLE details & history
Last TLE update: 1 day ago

TLE from 1 day ago
0 STARLINK-4718
1 53773U 22111A   25349.14589595  .00000853  00000-0  71677-4 0  9999
2 53773  53.2188 303.5766 0001452  88.7687 271.3471 15.08833555181086
Epoch: 2025-12-15T03:30Z
TLE epoch observation values (Epoch: 2025-12-15T03:30:05.410Z)
Latitude
-0.00004°
Longitude
167.00537°
Altitude
540.637 km
Speed
7.593 km/s
True Right ascension
20h 14m 18s
True Declination
0° 00' 00"
Sunlit
Object was in daylight at epoch
Visualization orbit readout
Latitude
Unknown
Longitude
Unknown
Altitude
Unknown
Speed
Unknown
Apparent Right ascension
Unknown
Apparent Declination
Unknown
Sunlit
N/A
Visualization observer readout
Local Sidereal Time
03:26:40
Azimuth
Unknown
Elevation
Unknown
Doppler factor
Unknown
Orbital elements
Apogee altitude
541.012 km
Perigee altitude
539.003 km
Semi-major axis
6,918.145 km
Eccentricity
0.00015
Inclination
53.2188°
RAAN
303.5766°
Arg. of periapsis
88.7687°
True anomaly
271.33047°
Mean anomaly
271.3471°
Eccentric anomaly
271.33878°
Mean motion
3.77189 °/min
Orbital period
95.44 mins
BSTAR
0.000071677
Loading maneuver chart data...
Computing Atmospheric mass density...
Loading historical data...
Loading historical data...
Loading historical data...
Loading historical data...
Loading historical data...
Loading historical data...
Loading historical data...

Documentation

Showing up to 5 results
|